Dewpoint
55 55 55 55 56 55 56 56 56 56 57 57 58 58 59 59 58 47 42 43 48 74 73 51 55 54 52 53 54 54 51 41 37 34 35 41 39 48 49 47 56 54 55 59 58
55 55 54 54 54 54 55 56 56 56 56 57 57 58 58 59 45 31 44 69 74 74 48 45 48 48 46 47 51 58 54 46 45 38 36 38 40 43 45 46 50 53 55 56 58
54 54 54 54 54 54 54 55 55 56 56 56 56 57 58 56 35 28 71 74 74 69 35 39 45 43 43 43 44 53 51 47 48 39 38 37 40 42 44 45 47 53 55 56 56
54 54 54 54 54 53 53 54 54 54 55 55 56 57 58 49 24 31 69 74 74 50 36 35 39 40 40 39 44 52 55 50 39 39 37 36 37 42 43 45 49 54 56 57 55
53 53 54 54 54 54 54 54 54 54 54 55 56 57 51 34 30 35 71 70 55 44 37 36 35 37 36 38 36 50 51 49 36 35 37 39 36 36 41 45 49 54 57 57 56
52 53 54 54 54 54 54 54 54 54 54 55 56 57 45 22 24 33 37 45 33 37 36 38 34 33 33 34 31 29 41 39 34 35 38 39 37 35 40 44 49 53 55 55 55
53 53 53 53 53 53 54 54 54 53 54 56 59 53 35 25 26 36 31 35 35 34 30 30 33 28 31 26 26 26 34 35 35 34 36 37 39 37 42 43 48 51 54 54 55
53 53 53 53 53 53 53 52 53 53 55 58 59 50 32 21 25 26 21 27 31 30 28 25 23 22 22 24 23 22 29 34 34 33 36 36 45 39 44 40 47 50 51 53 54
53 53 53 53 53 52 52 52 53 54 57 58 55 50 34 42 29 25 22 21 22 20 29 24 20 17 19 20 20 23 27 31 34 34 36 38 51 50 49 40 45 48 49 51 53
53 53 53 53 52 51 51 51 53 54 57 53 50 45 42 28 28 25 21 18 18 21 23 24 21 16 15 19 19 22 27 29 36 36 35 48 52 50 47 44 42 45 49 51 51
53 52 52 52 51 50 47 40 36 41 46 42 36 29 22 32 26 28 22 19 22 23 18 22 18 17 16 20 22 22 27 28 36 45 34 44 49 54 49 45 43 43 47 48 50
52 52 52 52 51 49 46 31 23 21 17 15 19 30 35 28 26 26 26 27 25 20 19 18 17 14 16 19 23 24 26 30 36 45 42 37 49 53 50 45 45 45 45 47 49
52 52 52 51 50 45 27 21 27 22 15 13 11 10 20 31 26 23 24 24 21 19 18 16 13 10 12 17 23 23 26 29 32 38 36 35 35 39 44 46 45 45 47 47 48
52 52 51 50 41 32 27 26 20 18 15 14 11 10 9 14 17 23 24 25 17 19 19 16 12 10 8 15 21 22 24 26 31 34 33 35 31 41 40 46 45 44 44 46 48
52 51 50 50 39 35 29 25 22 19 15 16 13 14 10 9 12 12 19 25 20 16 17 17 12 9 8 10 18 22 24 25 26 31 36 39 36 38 43 42 44 43 45 45 48
51 51 50 40 36 36 32 25 22 16 16 17 18 17 12 9 9 15 13 19 24 18 16 16 13 8 6 6 13 20 22 24 25 26 30 38 35 38 40 43 45 43 42 49 46
51 50 48 42 33 28 29 24 14 13 19 17 18 19 17 11 10 18 15 15 18 23 20 17 15 11 6 7 11 15 20 23 24 25 24 32 38 41 40 42 44 43 44 48 50
49 47 45 40 37 37 32 21 18 17 15 16 15 18 18 18 14 13 20 15 16 20 18 17 15 13 11 9 10 13 16 23 27 24 25 28 29 39 43 43 46 47 45 45 48
48 39 36 29 32 33 28 18 17 19 18 15 15 15 18 18 19 18 20 18 15 19 22 19 17 15 13 10 8 11 16 16 21 23 23 25 29 32 38 40 45 44 40 42 45
42 39 37 35 29 31 26 24 21 17 16 15 15 17 17 17 18 17 21 22 16 15 20 20 20 16 14 13 9 9 14 14 17 26 27 24 30 31 42 42 41 41 39 42 42
41 33 29 29 31 32 27 24 23 23 22 18 17 14 12 16 18 18 15 19 20 15 16 17 22 19 19 18 14 10 9 12 15 21 23 25 27 33 38 44 42 40 40 39 35
35 28 28 33 27 27 24 25 29 25 26 22 20 16 13 11 16 17 18 17 17 19 18 17 18 22 17 18 16 12 15 14 16 29 23 24 25 26 42 40 41 39 40 39 39
34 30 29 26 22 20 23 19 19 21 22 23 21 20 16 12 17 16 19 17 17 17 21 23 19 22 20 16 18 16 14 8 8 11 29 23 24 31 36 39 40 38 38 43 46
37 27 24 24 25 21 27 30 25 20 18 21 24 24 20 17 16 19 17 17 17 18 54 32 20 26 18 23 20 22 17 15 10 14 18 23 27 30 36 40 41 41 41 42 50
38 29 28 29 27 31 36 35 32 28 28 29 28 27 31 29 14 12 13 15 17 38 25 24 28 25 21 17 18 19 17 14 17 20 20 19 29 30 33 40 40 50 45 46 49
38 32 34 31 29 24 26 26 26 27 32 27 30 31 35 34 36 35 34 28 22 21 22 27 30 28 25 17 17 19 19 17 18 17 18 19 20 27 33 35 44 38 41 45 47
40 44 43 34 27 23 18 22 30 31 32 29 35 35 33 31 35 35 33 32 29 26 30 31 26 33 28 24 21 20 24 22 18 19 19 20 26 30 31 36 41 45 41 46 45
Lifted_Index
17 17 18 18 18 18 17 17 17 17 17 16 16 16 15 15 14 13 11 9 6 3 1 1 0 -0 -1 -1 -2 -2 -1 -1 -1 -0 1 1 1 -0 -1 -1 -1 -1 -2 -2 -2
18 18 18 18 18 18 18 18 17 17 17 17 16 16 16 15 14 12 10 7 5 3 4 3 1 1 0 -1 -2 -1 -1 -1 -1 -0 1 1 1 0 0 -0 -0 -1 -1 -2 -2
18 18 18 18 18 18 18 18 18 18 18 17 17 16 16 15 13 11 8 6 4 5 6 5 3 2 1 -0 -1 -1 -0 -0 -1 -1 0 1 1 1 1 0 -0 -1 -2 -2 -2
19 19 19 19 19 19 18 18 18 18 18 17 17 16 15 14 12 10 8 6 5 6 7 6 4 3 2 1 -1 -1 -0 -0 -1 -1 -1 0 1 1 1 0 -0 -1 -2 -2 -2
19 19 19 19 19 19 19 18 18 18 18 17 17 16 14 12 11 11 9 7 7 8 7 6 5 4 3 2 0 -1 -1 -1 -1 -1 -1 -1 0 1 1 0 -0 -1 -2 -2 -2
20 20 19 19 19 19 19 19 18 18 17 17 16 15 13 11 11 11 10 9 9 9 8 6 5 5 4 3 1 -0 -1 -1 -1 -1 -1 -1 -0 1 1 0 -0 -1 -1 -2 -2
20 20 20 19 19 19 19 19 18 18 17 16 15 14 12 11 11 11 11 10 10 9 8 7 6 5 5 4 3 1 -0 -1 -1 -1 -1 -1 -1 0 1 0 -0 -1 -1 -1 -1
20 20 20 20 20 20 19 19 18 17 16 15 14 12 11 11 11 11 11 11 10 10 9 9 8 7 6 5 3 1 -0 -1 -1 -1 -1 -1 -1 -0 0 0 0 -0 -0 -0 -0
20 20 20 20 20 20 19 18 17 17 15 13 12 11 10 10 11 11 11 11 11 10 10 9 8 7 6 5 4 2 0 -1 -1 -1 -1 -1 -0 -0 -0 0 1 1 1 0 0
20 20 20 20 21 20 19 17 16 15 13 11 10 10 9 10 10 10 11 11 11 10 10 9 8 7 7 5 4 2 0 -1 -1 -1 -1 -1 -0 0 -0 0 1 1 1 1 1
20 20 20 20 21 20 18 16 15 13 11 10 10 10 10 9 9 10 10 10 10 10 9 9 8 7 6 5 4 2 -0 -1 -1 -1 -1 -1 -1 -0 -1 -1 0 1 1 1 1
20 20 20 20 20 20 18 16 15 14 11 10 10 10 9 9 9 9 9 10 10 9 9 8 7 7 6 5 4 2 0 -1 -1 -1 -1 -1 -1 -2 -2 -1 -0 1 1 1 2
21 21 21 20 19 18 17 17 16 15 12 9 9 9 9 10 9 9 9 9 9 9 8 8 7 6 5 5 4 2 1 -0 -0 -0 -1 -1 -1 -2 -2 -2 -1 0 1 1 1
21 21 21 21 19 17 17 17 17 15 10 7 8 9 10 10 9 9 9 9 9 8 8 7 6 6 5 5 4 3 1 0 -0 -1 -1 -1 -1 -1 -2 -2 -1 -0 0 1 1
21 21 21 20 19 17 17 17 17 13 7 6 8 9 10 9 9 9 9 9 8 8 7 6 6 5 5 5 4 3 1 -0 -1 -1 -1 -1 -1 -1 -1 -1 -1 -0 0 0 0
21 21 21 20 18 18 18 17 14 9 6 6 8 9 9 8 8 8 9 9 8 7 7 6 6 5 5 4 3 2 1 -0 -1 -1 -1 -1 -1 -1 -1 -1 -1 -0 -0 -1 -1
21 22 21 20 18 18 17 15 10 7 6 6 7 8 8 8 8 8 8 8 7 7 6 6 5 5 4 3 2 1 0 -1 -1 -1 -1 -1 -1 -1 -1 -1 -0 -0 -1 -1 -2
22 22 21 19 18 17 16 12 8 7 7 6 6 6 7 7 7 7 7 7 7 7 6 5 5 4 4 3 2 1 -0 -1 -1 -1 -1 -1 -1 -1 -1 -0 -0 0 -0 -1 -2
22 21 19 18 17 16 14 10 8 8 8 6 5 5 5 5 5 5 6 7 7 6 5 5 4 4 3 3 2 2 1 -0 -0 -1 -1 -1 -1 -1 -0 -0 -0 -0 -0 -0 -1
21 19 17 16 16 15 13 10 10 10 10 8 6 5 4 3 2 3 4 5 5 5 5 4 3 2 2 3 3 2 2 1 -0 -1 -1 -1 -1 -1 -1 -0 -0 -0 -0 -0 -0
19 17 15 14 14 13 12 11 11 11 11 10 9 8 5 2 1 0 1 2 3 4 4 4 3 2 1 2 2 3 2 1 0 -1 -1 -1 -1 -1 -1 -1 -0 -0 -0 -0 -0
17 15 13 12 12 12 11 11 11 11 10 10 9 9 7 4 1 0 0 0 1 1 2 3 3 2 1 1 1 2 2 2 1 -0 -1 -1 -1 -0 -0 -0 -0 -0 -0 0 0
13 11 9 8 9 9 9 10 10 10 9 8 7 7 7 5 3 2 1 0 -0 -0 0 1 2 2 2 1 0 0 1 1 0 0 -0 -1 -0 0 -0 -0 -0 -0 -0 0 0
8 7 5 5 5 5 5 7 8 8 8 6 5 5 5 5 4 4 3 2 0 -0 -0 0 1 2 2 1 0 -0 -0 -0 -0 -0 -0 -1 -0 0 -0 -0 -1 -1 -1 -0 0
4 3 2 2 2 1 2 4 5 5 5 4 4 4 4 4 4 4 4 3 1 -0 -0 0 1 2 2 1 -0 -0 -1 -1 -1 -0 -0 -0 -0 -0 -0 -1 -1 -1 -1 -0 -0
2 2 1 1 1 1 1 2 3 3 3 3 3 3 4 4 4 4 5 4 2 1 -0 0 1 1 1 1 -0 -0 -0 -1 -1 -0 0 -0 -0 -0 -0 -0 -1 -1 -1 -1 -1
2 2 1 1 1 1 1 1 2 2 2 2 2 3 3 4 4 5 5 4 3 1 0 0 1 1 1 1 -0 -0 -0 -0 -1 -0 -0 -0 -0 -0 -0 -0 -1 -1 -1 -1 -2